GW0539 Weather Reports


time (UTC)temp
F
wind
direction
speed
knots
gust
knots
rain 1hr
in
rain 24hr
in
rain mn
in
humidity
%
barometer
mb
20260505065506 38 298 0.9 0.9 0.00 0.00 0.00 96 1016.0
20260505065003 38 295 0.0 0.0 0.00 0.00 0.00 96 1015.7
20260505064500 38 295 0.0 0.0 0.00 0.00 0.00 96 1015.8
20260505063958 38 294 0.0 0.0 0.00 0.00 0.00 96 1015.8
20260505063455 39 294 0.0 0.0 0.00 0.00 0.00 96 1016.1
20260505062951 39 293 0.9 0.9 0.00 0.00 0.00 96 1016.1
20260505062448 39 294 0.9 0.9 0.00 0.00 0.00 96 1016.0
20260505061945 39 293 0.0 0.9 0.00 0.00 0.00 96 1016.0
20260505061443 39 293 0.9 0.9 0.00 0.00 0.00 96 1016.0
20260505060940 39 294 0.0 0.0 0.00 0.00 0.00 96 1015.7
20260505060437 39 293 0.9 0.9 0.00 0.00 0.00 96 1015.8
20260505055933 39 293 0.9 0.9 0.00 0.02 0.02 96 1016.0
20260505055430 39 301 0.0 0.9 0.00 0.02 0.02 96 1016.0
20260505054926 39 300 0.9 0.9 0.00 0.02 0.02 96 1016.0
20260505054424 39 308 0.0 0.0 0.00 0.02 0.02 96 1016.2
20260505053922 39 308 0.9 0.9 0.00 0.02 0.02 96 1016.1
20260505053418 39 311 0.9 1.7 0.00 0.02 0.02 96 1016.4
20260505052915 39 309 0.9 1.7 0.00 0.02 0.02 96 1016.1
20260505052412 39 313 1.7 1.7 0.00 0.02 0.02 96 1016.1
20260505051910 39 316 1.7 1.7 0.00 0.02 0.02 96 1016.0
20260505051407 39 308 0.9 0.9 0.00 0.02 0.02 96 1015.7
20260505050905 39 328 1.7 2.6 0.00 0.02 0.02 96 1015.7
20260505050403 39 323 1.7 2.6 0.00 0.02 0.02 96 1015.8
20260505041330 39 342 1.7 4.3 0.00 0.02 0.02 95 1016.1
20260505040827 39 4 2.6 4.3 0.00 0.02 0.02 95 1016.0
20260505040325 39 325 1.7 2.6 0.00 0.02 0.02 95 1015.8
20260505035821 39 314 0.9 1.7 0.00 0.02 0.02 96 1015.7
20260505035317 39 309 0.0 1.7 0.00 0.02 0.02 96 1015.7
20260505034815 38 310 0.0 0.9 0.00 0.02 0.02 96 1015.6
20260505034311 38 307 0.0 0.0 0.00 0.02 0.02 96 1015.6
20260505033808 38 322 2.6 2.6 0.00 0.02 0.02 96 1015.5
20260505033305 38 322 0.9 1.7 0.00 0.02 0.02 96 1016.0
20260505032804 38 346 2.6 2.6 0.00 0.02 0.02 95 1015.7
20260505032259 38 342 2.6 5.2 0.00 0.02 0.02 95 1015.6
20260505031756 39 328 2.6 4.3 0.00 0.02 0.02 94 1015.6
20260505031253 39 327 2.6 2.6 0.00 0.02 0.02 93 1015.3
20260505030750 39 306 0.9 1.7 0.00 0.02 0.02 93 1015.3
20260505030246 39 295 0.9 0.9 0.00 0.02 0.02 93 1015.3
20260505025742 39 302 0.0 0.9 0.00 0.02 0.02 93 1015.3
20260505025240 40 308 0.0 1.7 0.00 0.02 0.02 93 1015.5
20260505024738 40 338 1.7 2.6 0.00 0.02 0.02 94 1015.8
20260505024235 40 329 2.6 2.6 0.00 0.02 0.02 94 1015.6
20260505023732 40 339 2.6 4.3 0.00 0.02 0.02 94 1015.7
20260505023230 40 354 4.3 5.2 0.00 0.02 0.02 92 1015.8
20260505022727 40 345 4.3 6.1 0.00 0.02 0.02 92 1015.6
20260505022224 40 329 3.5 5.2 0.00 0.02 0.02 91 1015.3
20260505021720 41 336 3.5 4.3 0.00 0.02 0.02 90 1015.3
20260505021217 41 327 1.7 2.6 0.00 0.02 0.02 90 1015.1
20260505020713 41 304 0.9 1.7 0.07 0.02 0.02 89 1015.5
20260505020208 41 314 0.9 2.6 0.07 0.02 0.02 90 1015.5
20260505015706 42 356 2.6 2.6 0.00 0.01 0.01 89 1015.6
20260505015203 42 353 2.6 4.3 0.05 0.01 0.01 88 1015.7
20260505014700 42 346 3.5 5.2 0.05 0.01 0.01 86 1015.7
20260505014157 42 3 2.6 2.6 0.00 0.00 0.00 84 1015.5
20260505013654 42 348 4.3 5.2 0.00 0.00 0.00 83 1015.3
20260505013151 43 22 2.6 5.2 0.00 0.00 0.00 79 1015.1
20260505012649 43 318 1.7 4.3 0.00 0.00 0.00 77 1015.1
20260505012146 43 312 0.9 2.6 0.00 0.00 0.00 76 1015.2
20260505011642 44 302 0.0 0.9 0.00 0.00 0.00 75 1015.1
20260505011139 44 280 1.7 1.7 0.00 0.00 0.00 74 1015.0
20260505010639 44 293 0.9 6.1 0.00 0.00 0.00 73 1015.0
20260505010137 44 90 6.1 7.0 0.00 0.00 0.00 72 1014.8
20260505005632 45 344 4.3 6.1 0.00 0.00 0.00 70 1014.8
20260505005130 46 21 2.6 5.2 0.00 0.00 0.00 70 1015.0
20260505004627 46 69 5.2 7.8 0.00 0.00 0.00 68 1014.8
20260505004123 46 65 5.2 9.6 0.00 0.00 0.00 66 1014.7
20260505003620 48 16 5.2 6.1 0.00 0.00 0.00 63 1014.6
20260505003113 48 76 9.6 13.9 0.00 0.00 0.00 59 1014.4
20260505002608 50 17 4.3 11.3 0.00 0.00 0.00 56 1014.3
20260505002107 50 37 11.3 14.8 0.00 0.00 0.00 57 1014.2
20260505001604 54 20 8.7 11.3 0.00 0.00 0.00 40 1013.7
20260505001101 54 353 3.5 6.1 0.00 0.00 0.00 39 1013.7
20260505000558 55 50 4.3 7.0 0.00 0.00 0.00 39 1013.4
20260505000056 55 38 4.3 7.8 0.00 0.00 0.00 39 1012.8
20260504235552 55 113 5.2 9.6 0.00 0.00 0.00 38 1013.0
20260504235049 56 38 2.6 6.1 0.00 0.00 0.00 38 1012.8
20260504234546 57 356 6.1 7.0 0.00 0.00 0.00 38 1013.0
20260504234043 57 13 7.8 9.6 0.00 0.00 0.00 38 1012.9
20260504233538 58 346 4.3 7.8 0.00 0.00 0.00 37 1012.9
20260504233035 57 351 5.2 7.0 0.00 0.00 0.00 39 1012.8
20260504232532 57 9 3.5 4.3 0.00 0.00 0.00 37 1012.9
20260504232030 57 33 3.5 4.3 0.00 0.00 0.00 38 1012.8
20260504231526 57 338 1.7 6.1 0.00 0.00 0.00 37 1012.7
20260504231022 57 335 2.6 5.2 0.00 0.00 0.00 37 1012.8
20260504230519 57 21 2.6 6.1 0.00 0.00 0.00 37 1012.7
20260504230018 58 35 5.2 8.7 0.00 0.00 0.00 37 1012.8
20260504225515 58 335 4.3 5.2 0.00 0.00 0.00 34 1012.8
20260504225012 58 322 4.3 5.2 0.00 0.00 0.00 36 1012.8
20260504224508 58 304 3.5 4.3 0.00 0.00 0.00 35 1012.7
20260504224005 58 304 3.5 6.1 0.00 0.00 0.00 36 1013.2
20260504223502 58 307 2.6 6.1 0.00 0.00 0.00 34 1013.2
20260504222957 58 323 3.5 6.1 0.00 0.00 0.00 34 1013.2
20260504222455 58 288 5.2 7.0 0.00 0.00 0.00 33 1013.2
20260504221952 59 231 4.3 6.1 0.00 0.00 0.00 35 1013.2
20260504221449 58 264 2.6 6.1 0.00 0.00 0.00 36 1013.3
20260504220946 57 272 4.3 6.1 0.00 0.00 0.00 37 1013.3
20260504220443 56 284 6.1 7.0 0.00 0.00 0.00 38 1013.3
20260504215940 55 218 5.2 9.6 0.00 0.00 0.00 40 1013.4
20260504215436 55 253 9.6 13.0 0.00 0.00 0.00 41 1013.3
20260504214933 54 225 9.6 12.2 0.00 0.00 0.00 41 1013.7
20260504214429 54 289 7.0 19.1 0.00 0.00 0.00 42 1013.7
20260504213926 56 289 6.1 14.8 0.00 0.00 0.00 40 1013.8
20260504213422 55 249 10.4 11.3 0.00 0.00 0.00 39 1013.8
20260504212920 55 233 7.8 11.3 0.00 0.00 0.00 39 1013.6
20260504212415 55 282 7.8 12.2 0.00 0.00 0.00 40 1013.7
20260504211914 56 305 6.1 8.7 0.00 0.00 0.00 38 1013.9
20260504211409 55 288 8.7 13.9 0.00 0.00 0.00 37 1013.9
20260504210907 56 270 15.6 20.9 0.00 0.00 0.00 39 1013.9
20260504210404 57 273 11.3 15.6 0.00 0.00 0.00 34 1013.8
20260504205901 58 329 5.2 7.0 0.00 0.00 0.00 32 1013.7
20260504205359 59 315 6.1 7.0 0.00 0.00 0.00 31 1013.8
20260504204857 59 269 6.1 8.7 0.00 0.00 0.00 32 1013.7
20260504204355 59 258 3.5 5.2 0.00 0.00 0.00 33 1013.8
20260504203854 58 276 3.5 13.0 0.00 0.00 0.00 34 1013.7
20260504203350 57 263 6.1 13.0 0.00 0.00 0.00 36 1013.9
20260504202846 57 271 12.2 19.1 0.00 0.00 0.00 36 1013.9
20260504202344 59 292 10.4 14.8 0.00 0.00 0.00 32 1013.4
20260504201840 60 289 5.2 9.6 0.00 0.00 0.00 29 1013.6
20260504201337 60 254 4.3 8.7 0.00 0.00 0.00 27 1013.4
20260504200835 61 243 6.1 9.6 0.00 0.00 0.00 27 1013.4
20260504200331 62 352 2.6 7.0 0.00 0.00 0.00 26 1013.3
20260504195828 64 350 5.2 7.0 0.00 0.00 0.00 25 1013.3
20260504195323 64 298 5.2 9.6 0.00 0.00 0.00 23 1013.3
20260504194820 64 211 5.2 8.7 0.00 0.00 0.00 24 1013.3
20260504194316 63 246 4.3 7.0 0.00 0.00 0.00 22 1013.4
20260504193812 62 352 7.8 9.6 0.00 0.00 0.00 24 1013.4
20260504193310 61 351 7.8 11.3 0.00 0.00 0.00 26 1013.4
20260504192808 63 327 5.2 11.3 0.00 0.00 0.00 25 1013.7
20260504192306 63 293 7.0 11.3 0.00 0.00 0.00 23 1013.8
20260504191805 61 293 1.7 9.6 0.00 0.00 0.00 25 1013.9
20260504191302 60 347 8.7 15.6 0.00 0.00 0.00 26 1014.1
20260504190757 62 330 8.7 11.3 0.00 0.00 0.00 27 1014.3
20260504190253 58 306 6.1 7.8 0.00 0.00 0.00 30 1014.2
20260504185750 60 3 6.1 9.6 0.00 0.00 0.00 28 1014.3
20260504185247 62 42 7.8 8.7 0.00 0.00 0.00 26 1014.1
20260504184743 63 289 6.1 12.2 0.00 0.00 0.00 25 1014.2
20260504184239 62 238 7.8 13.9 0.00 0.00 0.00 25 1014.1
20260504183735 63 333 6.1 11.3 0.00 0.00 0.00 26 1014.2
20260504183232 61 263 7.8 12.2 0.00 0.00 0.00 27 1014.4
20260504182730 59 283 7.0 11.3 0.00 0.00 0.00 29 1014.3
20260504182227 61 309 5.2 7.8 0.00 0.00 0.00 25 1014.4
20260504181724 60 290 7.8 9.6 0.00 0.00 0.00 26 1014.7
20260504181222 61 269 7.8 12.2 0.00 0.00 0.00 25 1014.7
20260504180721 60 270 6.1 8.7 0.00 0.00 0.00 26 1014.8
20260504180219 61 281 7.8 11.3 0.00 0.00 0.00 25 1015.0
20260504175716 61 302 7.8 11.3 0.00 0.00 0.00 25 1014.8
20260504175213 60 324 6.1 11.3 0.00 0.00 0.00 26 1014.8
20260504174711 60 308 7.0 9.6 0.00 0.00 0.00 26 1015.1
20260504174209 59 310 6.1 8.7 0.00 0.00 0.00 26 1015.3
20260504173705 60 329 10.4 13.0 0.00 0.00 0.00 26 1015.2
20260504173202 60 319 5.2 12.2 0.00 0.00 0.00 28 1015.5
20260504172658 59 331 6.1 8.7 0.00 0.00 0.00 27 1015.7
20260504172155 59 318 6.1 14.8 0.00 0.00 0.00 29 1015.7
20260504171651 57 315 6.1 7.8 0.00 0.00 0.00 29 1015.6
20260504171149 56 7 5.2 8.7 0.00 0.00 0.00 29 1016.0
20260504170645 57 293 4.3 6.1 0.00 0.00 0.00 32 1016.1
20260504170143 57 295 0.0 2.6 0.00 0.00 0.00 30 1016.0
20260504151028 52 19 2.6 6.1 0.00 0.00 0.00 40 1017.5
20260504150525 51 306 0.0 1.7 0.00 0.00 0.00 46 1017.6
20260504140951 37 280 0.9 5.2 0.00 0.00 0.00 73 1018.0
20260504140447 36 271 1.7 4.3 0.00 0.00 0.00 73 1017.8
20260504130412 29 279 0.9 0.9 0.00 0.00 0.00 84 1017.4
20260504110259 27 279 0.9 0.9 0.00 0.00 0.00 86 1017.6
20260504100217 27 279 0.9 0.9 0.00 0.00 0.00 85 1017.8
20260504090139 26 279 0.0 0.0 0.00 0.00 0.00 86 1018.0
20260504081610 26 279 0.0 0.9 0.00 0.00 0.00 86 1018.4
20260504081106 26 279 0.0 0.0 0.00 0.00 0.00 85 1018.4
20260504080603 26 279 0.0 0.0 0.00 0.00 0.00 85 1018.4